Year,Month,Day,Hour,Minute,Value (Times are PST for temperature in C)
2017,06,26,00,00,18.60
2017,06,26,00,01,18.60
2017,06,26,00,02,18.60
2017,06,26,00,03,18.50
2017,06,26,00,04,18.50
2017,06,26,00,05,18.50
2017,06,26,00,06,18.50
2017,06,26,00,07,18.50
2017,06,26,00,08,18.50
2017,06,26,00,09,18.50
2017,06,26,00,10,18.50
2017,06,26,00,11,18.50
2017,06,26,00,12,18.50
2017,06,26,00,13,18.50
2017,06,26,00,14,18.60
2017,06,26,00,15,18.60
2017,06,26,00,16,18.60
2017,06,26,00,17,18.60
2017,06,26,00,18,18.60
2017,06,26,00,19,18.60
2017,06,26,00,20,18.60
2017,06,26,00,21,18.60
2017,06,26,00,22,18.70
2017,06,26,00,23,18.70
2017,06,26,00,24,18.70
2017,06,26,00,25,18.70
2017,06,26,00,26,18.70
2017,06,26,00,27,18.70
2017,06,26,00,28,18.70
2017,06,26,00,29,18.70
2017,06,26,00,30,18.70
2017,06,26,00,31,18.70
2017,06,26,00,32,18.70
2017,06,26,00,33,18.80
2017,06,26,00,34,18.80
2017,06,26,00,35,18.80
2017,06,26,00,36,18.80
2017,06,26,00,37,18.80
2017,06,26,00,38,18.80
2017,06,26,00,39,18.80
2017,06,26,00,40,18.80
2017,06,26,00,41,18.80
2017,06,26,00,42,18.90
2017,06,26,00,43,18.90
2017,06,26,00,44,18.90
2017,06,26,00,45,18.90
2017,06,26,00,46,18.90
2017,06,26,00,47,18.90
2017,06,26,00,48,18.90
2017,06,26,00,49,18.90
2017,06,26,00,50,18.90
2017,06,26,00,51,18.90
2017,06,26,00,52,18.90
2017,06,26,00,53,18.90
2017,06,26,00,54,18.90
2017,06,26,00,55,18.90
2017,06,26,00,56,18.90
2017,06,26,00,57,18.90
2017,06,26,00,58,18.90
2017,06,26,00,59,18.90
2017,06,26,01,00,18.90
2017,06,26,01,01,18.90
2017,06,26,01,02,18.90
2017,06,26,01,03,18.90
2017,06,26,01,04,18.90
2017,06,26,01,05,18.90
2017,06,26,01,06,18.90
2017,06,26,01,07,18.90
2017,06,26,01,08,18.90
2017,06,26,01,09,19.00
2017,06,26,01,10,19.00
2017,06,26,01,11,19.00
2017,06,26,01,12,19.00
2017,06,26,01,13,19.10
2017,06,26,01,14,19.10
2017,06,26,01,15,19.10
2017,06,26,01,16,19.10
2017,06,26,01,17,19.10
2017,06,26,01,18,19.10
2017,06,26,01,19,19.10
2017,06,26,01,20,19.10
2017,06,26,01,21,19.10
2017,06,26,01,22,19.10
2017,06,26,01,23,19.20
2017,06,26,01,24,19.20
2017,06,26,01,25,19.20
2017,06,26,01,26,19.20
2017,06,26,01,27,19.20
2017,06,26,01,28,19.20
2017,06,26,01,29,19.10
2017,06,26,01,30,19.10
2017,06,26,01,31,19.10
2017,06,26,01,32,19.10
2017,06,26,01,33,19.10
2017,06,26,01,34,19.10
2017,06,26,01,35,19.10
2017,06,26,01,36,19.10
2017,06,26,01,37,19.10
2017,06,26,01,38,19.10
2017,06,26,01,39,19.10
2017,06,26,01,40,19.00
2017,06,26,01,41,19.00
2017,06,26,01,42,19.00
2017,06,26,01,43,18.90
2017,06,26,01,44,18.90
2017,06,26,01,45,18.90
2017,06,26,01,46,18.90
2017,06,26,01,47,18.90
2017,06,26,01,48,18.80
2017,06,26,01,49,18.80
2017,06,26,01,50,18.80
2017,06,26,01,51,18.80
2017,06,26,01,52,18.80
2017,06,26,01,53,18.70
2017,06,26,01,54,18.70
2017,06,26,01,55,18.70
2017,06,26,01,56,18.70
2017,06,26,01,57,18.70
2017,06,26,01,58,18.60
2017,06,26,01,59,18.60
2017,06,26,02,00,18.60
2017,06,26,02,01,18.60
2017,06,26,02,02,18.60
2017,06,26,02,03,18.50
2017,06,26,02,04,18.50
2017,06,26,02,05,18.50
2017,06,26,02,06,18.50
2017,06,26,02,07,18.40
2017,06,26,02,08,18.40
2017,06,26,02,09,18.30
2017,06,26,02,10,18.20
2017,06,26,02,11,18.20
2017,06,26,02,12,18.20
2017,06,26,02,13,18.10
2017,06,26,02,14,18.10
2017,06,26,02,15,18.00
2017,06,26,02,16,18.00
2017,06,26,02,17,17.90
2017,06,26,02,18,17.90
2017,06,26,02,19,17.80
2017,06,26,02,20,17.70
2017,06,26,02,21,17.70
2017,06,26,02,22,17.60
2017,06,26,02,23,17.50
2017,06,26,02,24,17.50
2017,06,26,02,25,17.40
2017,06,26,02,26,17.40
2017,06,26,02,27,17.30
2017,06,26,02,28,17.20
2017,06,26,02,29,17.20
2017,06,26,02,30,17.10
2017,06,26,02,31,17.10
2017,06,26,02,32,17.00
2017,06,26,02,33,16.90
2017,06,26,02,34,16.90
2017,06,26,02,35,16.80
2017,06,26,02,36,16.80
2017,06,26,02,37,16.80
2017,06,26,02,38,16.70
2017,06,26,02,39,16.70
2017,06,26,02,40,16.60
2017,06,26,02,41,16.60
2017,06,26,02,42,16.50
2017,06,26,02,43,16.50
2017,06,26,02,44,16.40
2017,06,26,02,45,16.40
2017,06,26,02,46,16.30
2017,06,26,02,47,16.30
2017,06,26,02,48,16.30
2017,06,26,02,49,16.20
2017,06,26,02,50,16.20
2017,06,26,02,51,16.10
2017,06,26,02,52,16.10
2017,06,26,02,53,16.00
2017,06,26,02,54,16.00
2017,06,26,02,55,16.00
2017,06,26,02,56,15.90
2017,06,26,02,57,15.90
2017,06,26,02,58,15.90
2017,06,26,02,59,15.90
2017,06,26,03,00,15.90
2017,06,26,03,01,15.90
2017,06,26,03,02,15.90
2017,06,26,03,03,15.90
2017,06,26,03,04,15.80
2017,06,26,03,05,15.80
2017,06,26,03,06,15.80
2017,06,26,03,07,15.80
2017,06,26,03,08,15.80
2017,06,26,03,09,15.80
2017,06,26,03,10,15.80
2017,06,26,03,11,15.80
2017,06,26,03,12,15.80
2017,06,26,03,13,15.80
2017,06,26,03,14,15.80
2017,06,26,03,15,15.80
2017,06,26,03,16,15.80
2017,06,26,03,17,15.80
2017,06,26,03,18,15.80
2017,06,26,03,19,15.80
2017,06,26,03,20,15.80
2017,06,26,03,21,15.80
2017,06,26,03,22,15.90
2017,06,26,03,23,16.00
2017,06,26,03,24,16.00
2017,06,26,03,25,16.10
2017,06,26,03,26,16.10
2017,06,26,03,27,16.20
2017,06,26,03,28,16.20
2017,06,26,03,29,16.30
2017,06,26,03,30,16.40
2017,06,26,03,31,16.50
2017,06,26,03,32,16.60
2017,06,26,03,33,16.70
2017,06,26,03,34,16.90
2017,06,26,03,35,17.00
2017,06,26,03,36,17.10
2017,06,26,03,37,17.20
2017,06,26,03,38,17.40
2017,06,26,03,39,17.50
2017,06,26,03,40,17.70
2017,06,26,03,41,17.90
2017,06,26,03,42,18.00
2017,06,26,03,43,18.20
2017,06,26,03,44,18.30
2017,06,26,03,45,18.40
2017,06,26,03,46,18.50
2017,06,26,03,47,18.60
2017,06,26,03,48,18.70
2017,06,26,03,49,18.80
2017,06,26,03,50,18.80
2017,06,26,03,51,18.80
2017,06,26,03,52,18.80
2017,06,26,03,53,18.80
2017,06,26,03,54,18.80
2017,06,26,03,55,18.80
2017,06,26,03,56,18.80
2017,06,26,03,57,18.80
2017,06,26,03,58,18.80
2017,06,26,03,59,18.70
2017,06,26,04,00,18.70
2017,06,26,04,01,18.60
2017,06,26,04,02,18.60
2017,06,26,04,03,18.50
2017,06,26,04,04,18.50
2017,06,26,04,05,18.40
2017,06,26,04,06,18.30
2017,06,26,04,07,18.30
2017,06,26,04,08,18.20
2017,06,26,04,09,18.20
2017,06,26,04,10,18.10
2017,06,26,04,11,18.00
2017,06,26,04,12,17.90
2017,06,26,04,13,17.90
2017,06,26,04,14,17.80
2017,06,26,04,15,17.60
2017,06,26,04,16,17.30
2017,06,26,04,17,17.00
2017,06,26,04,18,16.60
2017,06,26,04,19,16.30
2017,06,26,04,20,16.00
2017,06,26,04,21,15.80
2017,06,26,04,22,15.60
2017,06,26,04,23,15.40
2017,06,26,04,24,15.20
2017,06,26,04,25,15.00
2017,06,26,04,26,14.90
2017,06,26,04,27,14.70
2017,06,26,04,28,14.60
2017,06,26,04,29,14.40
2017,06,26,04,30,14.30
2017,06,26,04,31,14.20
2017,06,26,04,32,14.10
2017,06,26,04,33,14.00
2017,06,26,04,34,13.90
2017,06,26,04,35,13.90
2017,06,26,04,36,13.80
2017,06,26,04,37,13.80
2017,06,26,04,38,13.70
2017,06,26,04,39,13.70
2017,06,26,04,40,13.70
2017,06,26,04,41,13.70
2017,06,26,04,42,13.60
2017,06,26,04,43,13.60
2017,06,26,04,44,13.60
2017,06,26,04,45,13.60
2017,06,26,04,46,13.60
2017,06,26,04,47,13.60
2017,06,26,04,48,13.60
2017,06,26,04,49,13.60
2017,06,26,04,50,13.60
2017,06,26,04,51,13.60
2017,06,26,04,52,13.50
2017,06,26,04,53,13.50
2017,06,26,04,54,13.50
2017,06,26,04,55,13.50
2017,06,26,04,56,13.50
2017,06,26,04,57,13.50
2017,06,26,04,58,13.50
2017,06,26,04,59,13.40
2017,06,26,05,00,13.40
2017,06,26,05,01,13.40
2017,06,26,05,02,13.40
2017,06,26,05,03,13.40
2017,06,26,05,04,13.40
2017,06,26,05,05,13.40
2017,06,26,05,06,13.40
2017,06,26,05,07,13.30
2017,06,26,05,08,13.30
2017,06,26,05,09,13.30
2017,06,26,05,10,13.30
2017,06,26,05,11,13.30
2017,06,26,05,12,13.30
2017,06,26,05,13,13.30
2017,06,26,05,14,13.30
2017,06,26,05,15,13.30
2017,06,26,05,16,13.30
2017,06,26,05,17,13.30
2017,06,26,05,18,13.30
2017,06,26,05,19,13.30
2017,06,26,05,20,13.30
2017,06,26,05,21,13.30
2017,06,26,05,22,13.30
2017,06,26,05,23,13.30
2017,06,26,05,24,13.30
2017,06,26,05,25,13.30
2017,06,26,05,26,13.30
2017,06,26,05,27,13.30
2017,06,26,05,28,13.30
2017,06,26,05,29,13.30
2017,06,26,05,30,13.30
2017,06,26,05,31,13.30
2017,06,26,05,32,13.30
2017,06,26,05,33,13.20
2017,06,26,05,34,13.30
2017,06,26,05,35,13.30
2017,06,26,05,36,13.30
2017,06,26,05,37,13.20
2017,06,26,05,38,13.20
2017,06,26,05,39,13.20
2017,06,26,05,40,13.20
2017,06,26,05,41,13.20
2017,06,26,05,42,13.20
2017,06,26,05,43,13.20
2017,06,26,05,44,13.20
2017,06,26,05,45,13.10
2017,06,26,05,46,13.10
2017,06,26,05,47,13.10
2017,06,26,05,48,13.10
2017,06,26,05,49,13.10
2017,06,26,05,50,13.10
2017,06,26,05,51,13.10
2017,06,26,05,52,13.10
2017,06,26,05,53,13.10
2017,06,26,05,54,13.10
2017,06,26,05,55,13.10
2017,06,26,05,56,13.10
2017,06,26,05,57,13.10
2017,06,26,05,58,13.10
2017,06,26,05,59,13.10
2017,06,26,06,00,13.10
2017,06,26,06,01,13.10
2017,06,26,06,02,13.10
2017,06,26,06,03,13.20
2017,06,26,06,04,13.20
2017,06,26,06,05,13.20
2017,06,26,06,06,13.20
2017,06,26,06,07,13.20
2017,06,26,06,08,13.20
2017,06,26,06,09,13.20
2017,06,26,06,10,13.20
2017,06,26,06,11,13.20
2017,06,26,06,12,13.20
2017,06,26,06,13,13.20
2017,06,26,06,14,13.20
2017,06,26,06,15,13.10
2017,06,26,06,16,13.10
2017,06,26,06,17,13.10
2017,06,26,06,18,13.10
2017,06,26,06,19,13.10
2017,06,26,06,20,13.10
2017,06,26,06,21,13.10
2017,06,26,06,22,13.10
2017,06,26,06,23,13.10
2017,06,26,06,24,13.10
2017,06,26,06,25,13.10
2017,06,26,06,26,13.10
2017,06,26,06,27,13.10
2017,06,26,06,28,13.10
2017,06,26,06,29,13.10
2017,06,26,06,30,13.10
2017,06,26,06,31,13.10
2017,06,26,06,32,13.10
2017,06,26,06,33,13.10
2017,06,26,06,34,13.10
2017,06,26,06,35,13.10
2017,06,26,06,36,13.10
2017,06,26,06,37,13.20
2017,06,26,06,38,13.20
2017,06,26,06,39,13.20
2017,06,26,06,40,13.20
2017,06,26,06,41,13.20
2017,06,26,06,42,13.30
2017,06,26,06,43,13.30
2017,06,26,06,44,13.30
2017,06,26,06,45,13.30
2017,06,26,06,46,13.30
2017,06,26,06,47,13.30
2017,06,26,06,48,13.30
2017,06,26,06,49,13.40
2017,06,26,06,50,13.40
2017,06,26,06,51,13.40
2017,06,26,06,52,13.40
2017,06,26,06,53,13.40
2017,06,26,06,54,13.50
2017,06,26,06,55,13.50
2017,06,26,06,56,13.50
2017,06,26,06,57,13.60
2017,06,26,06,58,13.60
2017,06,26,06,59,13.70
2017,06,26,07,00,13.80
2017,06,26,07,01,13.90
2017,06,26,07,02,14.00
2017,06,26,07,03,14.10
2017,06,26,07,04,14.20
2017,06,26,07,05,14.30
2017,06,26,07,06,14.40
2017,06,26,07,07,14.50
2017,06,26,07,08,14.60
2017,06,26,07,09,14.70
2017,06,26,07,10,14.80
2017,06,26,07,11,14.80
2017,06,26,07,12,14.90
2017,06,26,07,13,15.00
2017,06,26,07,14,15.10
2017,06,26,07,15,15.10
2017,06,26,07,16,15.10
2017,06,26,07,17,15.20
2017,06,26,07,18,15.20
2017,06,26,07,19,15.20
2017,06,26,07,20,15.30
2017,06,26,07,21,15.30
2017,06,26,07,22,15.40
2017,06,26,07,23,15.40
2017,06,26,07,24,15.50
2017,06,26,07,25,15.60
2017,06,26,07,26,15.60
2017,06,26,07,27,15.70
2017,06,26,07,28,15.70
2017,06,26,07,29,15.80
2017,06,26,07,30,15.80
2017,06,26,07,31,15.80
2017,06,26,07,32,15.90
2017,06,26,07,33,15.90
2017,06,26,07,34,15.90
2017,06,26,07,35,16.00
2017,06,26,07,36,16.00
2017,06,26,07,37,16.00
2017,06,26,07,38,16.10
2017,06,26,07,39,16.10
2017,06,26,07,40,16.10
2017,06,26,07,41,16.10
2017,06,26,07,42,16.10
2017,06,26,07,43,16.10
2017,06,26,07,44,16.20
2017,06,26,07,45,16.20
2017,06,26,07,46,16.20
2017,06,26,07,47,16.20
2017,06,26,07,48,16.30
2017,06,26,07,49,16.30
2017,06,26,07,50,16.30
2017,06,26,07,51,16.40
2017,06,26,07,52,16.40
2017,06,26,07,53,16.40
2017,06,26,07,54,16.50
2017,06,26,07,55,16.50
2017,06,26,07,56,16.60
2017,06,26,07,57,16.60
2017,06,26,07,58,16.60
2017,06,26,07,59,16.60
2017,06,26,08,00,16.60
2017,06,26,08,01,16.60
2017,06,26,08,02,16.60
2017,06,26,08,03,16.60
2017,06,26,08,04,16.60
2017,06,26,08,05,16.50
2017,06,26,08,06,16.50
2017,06,26,08,07,16.50
2017,06,26,08,08,16.40
2017,06,26,08,09,16.40
2017,06,26,08,10,16.40
2017,06,26,08,11,16.30
2017,06,26,08,12,16.30
2017,06,26,08,13,16.20
2017,06,26,08,14,16.10
2017,06,26,08,15,16.00
2017,06,26,08,16,16.00
2017,06,26,08,17,15.90
2017,06,26,08,18,15.80
2017,06,26,08,19,15.70
2017,06,26,08,20,15.70
2017,06,26,08,21,15.70
2017,06,26,08,22,15.70
2017,06,26,08,23,15.50
2017,06,26,08,24,15.50
2017,06,26,08,25,15.50
2017,06,26,08,26,15.50
2017,06,26,08,27,15.50
2017,06,26,08,28,15.50
2017,06,26,08,29,15.50
2017,06,26,08,30,15.50
2017,06,26,08,31,15.60
2017,06,26,08,32,15.60
2017,06,26,08,33,15.60
2017,06,26,08,34,15.70
2017,06,26,08,35,15.70
2017,06,26,08,36,15.70
2017,06,26,08,37,15.80
2017,06,26,08,38,15.80
2017,06,26,08,39,15.80
2017,06,26,08,40,15.80
2017,06,26,08,41,15.80
2017,06,26,08,42,15.80
2017,06,26,08,43,15.90
2017,06,26,08,44,15.90
2017,06,26,08,45,15.90
2017,06,26,08,46,16.00
2017,06,26,08,47,16.00
2017,06,26,08,48,16.10
2017,06,26,08,49,16.10
2017,06,26,08,50,16.10
2017,06,26,08,51,16.20
2017,06,26,08,52,16.20
2017,06,26,08,53,16.30
2017,06,26,08,54,16.30
2017,06,26,08,55,16.40
2017,06,26,08,56,16.50
2017,06,26,08,57,16.50
2017,06,26,08,58,16.60
2017,06,26,08,59,16.60
2017,06,26,09,00,16.70
2017,06,26,09,01,16.70
2017,06,26,09,02,16.70
2017,06,26,09,03,16.80
2017,06,26,09,04,16.80
2017,06,26,09,05,16.80
2017,06,26,09,06,16.90
2017,06,26,09,07,17.00
2017,06,26,09,08,17.00
2017,06,26,09,09,17.10
2017,06,26,09,10,17.10
2017,06,26,09,11,17.20
2017,06,26,09,12,17.30
2017,06,26,09,13,17.40
2017,06,26,09,14,17.50
2017,06,26,09,15,17.60
2017,06,26,09,16,17.60
2017,06,26,09,17,17.70
2017,06,26,09,18,17.80
2017,06,26,09,19,17.80
2017,06,26,09,20,17.90
2017,06,26,09,21,17.90
2017,06,26,09,22,18.00
2017,06,26,09,23,18.10
2017,06,26,09,24,18.20
2017,06,26,09,25,18.30
2017,06,26,09,26,18.40
2017,06,26,09,27,18.50
2017,06,26,09,28,18.60
2017,06,26,09,29,18.80
2017,06,26,09,30,18.90
2017,06,26,09,31,19.00
2017,06,26,09,32,19.00
2017,06,26,09,33,19.00
2017,06,26,09,34,18.90
2017,06,26,09,35,18.90
2017,06,26,09,36,18.80
2017,06,26,09,37,18.80
2017,06,26,09,38,18.70
2017,06,26,09,39,18.70
2017,06,26,09,40,18.70
2017,06,26,09,41,18.70
2017,06,26,09,42,18.80
2017,06,26,09,43,18.80
2017,06,26,09,44,18.80
2017,06,26,09,45,18.80
2017,06,26,09,46,18.80
2017,06,26,09,47,18.80
2017,06,26,09,48,18.70
2017,06,26,09,49,18.60
2017,06,26,09,50,18.50
2017,06,26,09,51,18.40
2017,06,26,09,52,18.40
2017,06,26,09,53,18.30
2017,06,26,09,54,18.30
2017,06,26,09,55,18.30
2017,06,26,09,56,18.30
2017,06,26,09,57,18.30
2017,06,26,09,58,18.30
2017,06,26,09,59,18.30
2017,06,26,10,00,18.30
2017,06,26,10,01,18.30
2017,06,26,10,02,18.20
2017,06,26,10,03,18.10
2017,06,26,10,04,18.00
2017,06,26,10,05,17.90
2017,06,26,10,06,17.90
2017,06,26,10,07,17.90
2017,06,26,10,08,18.00
2017,06,26,10,09,18.00
2017,06,26,10,10,18.10
2017,06,26,10,11,18.10
2017,06,26,10,12,18.10
2017,06,26,10,13,18.10
2017,06,26,10,14,18.10
2017,06,26,10,15,18.10
2017,06,26,10,16,18.10
2017,06,26,10,17,18.10
2017,06,26,10,18,18.20
2017,06,26,10,19,18.30
2017,06,26,10,20,18.30
2017,06,26,10,21,18.50
2017,06,26,10,22,18.60
2017,06,26,10,23,18.60
2017,06,26,10,24,18.70
2017,06,26,10,25,18.80
2017,06,26,10,26,18.80
2017,06,26,10,27,18.90
2017,06,26,10,28,19.00
2017,06,26,10,29,19.00
2017,06,26,10,30,19.10
2017,06,26,10,31,19.20
2017,06,26,10,32,19.30
2017,06,26,10,33,19.50
2017,06,26,10,34,19.60
2017,06,26,10,35,19.80
2017,06,26,10,36,19.90
2017,06,26,10,37,20.10
2017,06,26,10,38,20.20
2017,06,26,10,39,20.40
2017,06,26,10,40,20.60
2017,06,26,10,41,20.80
2017,06,26,10,42,20.90
2017,06,26,10,43,21.10
2017,06,26,10,44,21.20
2017,06,26,10,45,21.20
2017,06,26,10,46,21.20
2017,06,26,10,47,21.20
2017,06,26,10,48,21.20
2017,06,26,10,49,21.20
2017,06,26,10,50,21.20
2017,06,26,10,51,21.20
2017,06,26,10,52,21.10
2017,06,26,10,53,21.00
2017,06,26,10,54,20.90
2017,06,26,10,55,20.70
2017,06,26,10,56,20.50
2017,06,26,10,57,20.40
2017,06,26,10,58,20.20
2017,06,26,10,59,20.10
2017,06,26,11,00,19.90
2017,06,26,11,01,19.80
2017,06,26,11,02,19.70
2017,06,26,11,03,19.60
2017,06,26,11,04,19.50
2017,06,26,11,05,19.50
2017,06,26,11,06,19.40
2017,06,26,11,07,19.40
2017,06,26,11,08,19.40
2017,06,26,11,09,19.40
2017,06,26,11,10,19.40
2017,06,26,11,11,19.40
2017,06,26,11,12,19.40
2017,06,26,11,13,19.40
2017,06,26,11,14,19.40
2017,06,26,11,15,19.40
2017,06,26,11,16,19.40
2017,06,26,11,17,19.40
2017,06,26,11,18,19.40
2017,06,26,11,19,19.50
2017,06,26,11,20,19.60
2017,06,26,11,21,19.70
2017,06,26,11,22,19.70
2017,06,26,11,23,19.70
2017,06,26,11,24,19.70
2017,06,26,11,25,19.70
2017,06,26,11,26,19.70
2017,06,26,11,27,19.60
2017,06,26,11,28,19.60
2017,06,26,11,29,19.60
2017,06,26,11,30,19.60
2017,06,26,11,31,19.60
2017,06,26,11,32,19.60
2017,06,26,11,33,19.60
2017,06,26,11,34,19.60
2017,06,26,11,35,19.70
2017,06,26,11,36,19.70
2017,06,26,11,37,19.80
2017,06,26,11,38,19.90
2017,06,26,11,39,20.00
2017,06,26,11,40,20.10
2017,06,26,11,41,20.20
2017,06,26,11,42,20.30
2017,06,26,11,43,20.30
2017,06,26,11,44,20.30
2017,06,26,11,45,20.20
2017,06,26,11,46,20.20
2017,06,26,11,47,20.20
2017,06,26,11,48,20.20
2017,06,26,11,49,20.20
2017,06,26,11,50,20.20
2017,06,26,11,51,20.20
2017,06,26,11,52,20.10
2017,06,26,11,53,20.10
2017,06,26,11,54,20.00
2017,06,26,11,55,19.90
2017,06,26,11,56,20.00
2017,06,26,11,57,20.10
2017,06,26,11,58,20.10
2017,06,26,11,59,20.20
2017,06,26,12,00,20.20
2017,06,26,12,01,20.30
2017,06,26,12,02,20.40
2017,06,26,12,03,20.40
2017,06,26,12,04,20.40
2017,06,26,12,05,20.40
2017,06,26,12,06,20.30
2017,06,26,12,07,20.30
2017,06,26,12,08,20.30
2017,06,26,12,09,20.30
2017,06,26,12,10,20.30
2017,06,26,12,11,20.30
2017,06,26,12,12,20.30
2017,06,26,12,13,20.40
2017,06,26,12,14,20.40
2017,06,26,12,15,20.50
2017,06,26,12,16,20.60
2017,06,26,12,17,20.70
2017,06,26,12,18,20.80
2017,06,26,12,19,20.80
2017,06,26,12,20,20.90
2017,06,26,12,21,21.00
2017,06,26,12,22,21.10
2017,06,26,12,23,21.20
2017,06,26,12,24,21.30
2017,06,26,12,25,21.40
2017,06,26,12,26,21.50
2017,06,26,12,27,21.50
2017,06,26,12,28,21.50
2017,06,26,12,29,21.50
2017,06,26,12,30,21.40
2017,06,26,12,31,21.40
2017,06,26,12,32,21.40
2017,06,26,12,33,21.50
2017,06,26,12,34,21.50
2017,06,26,12,35,21.50
2017,06,26,12,36,21.60
2017,06,26,12,37,21.50
2017,06,26,12,38,21.50
2017,06,26,12,39,21.40
2017,06,26,12,40,21.40
2017,06,26,12,41,21.40
2017,06,26,12,42,21.40
2017,06,26,12,43,21.50
2017,06,26,12,44,21.60
2017,06,26,12,45,21.80
2017,06,26,12,46,21.90
2017,06,26,12,47,21.90
2017,06,26,12,48,21.90
2017,06,26,12,49,22.00
2017,06,26,12,50,22.00
2017,06,26,12,51,22.10
2017,06,26,12,52,22.10
2017,06,26,12,53,22.20
2017,06,26,12,54,22.30
2017,06,26,12,55,22.30
2017,06,26,12,56,22.30
2017,06,26,12,57,22.40
2017,06,26,12,58,22.40
2017,06,26,12,59,22.40
2017,06,26,13,00,22.30
2017,06,26,13,01,22.30
2017,06,26,13,02,22.30
2017,06,26,13,03,22.30
2017,06,26,13,04,22.30
2017,06,26,13,05,22.20
2017,06,26,13,06,22.20
2017,06,26,13,07,22.20
2017,06,26,13,08,22.20
2017,06,26,13,09,22.20
2017,06,26,13,10,22.20
2017,06,26,13,11,22.20
2017,06,26,13,12,22.20
2017,06,26,13,13,22.20
2017,06,26,13,14,22.20
2017,06,26,13,15,22.20
2017,06,26,13,16,22.10
2017,06,26,13,17,22.00
2017,06,26,13,18,21.90
2017,06,26,13,19,21.70
2017,06,26,13,20,21.50
2017,06,26,13,21,21.40
2017,06,26,13,22,21.20
2017,06,26,13,23,21.10
2017,06,26,13,24,20.90
2017,06,26,13,25,20.80
2017,06,26,13,26,20.80
2017,06,26,13,27,20.70
2017,06,26,13,28,20.50
2017,06,26,13,29,20.40
2017,06,26,13,30,20.40
2017,06,26,13,31,20.30
2017,06,26,13,32,20.30
2017,06,26,13,33,20.40
2017,06,26,13,34,20.50
2017,06,26,13,35,20.50
2017,06,26,13,36,20.50
2017,06,26,13,37,20.50
2017,06,26,13,38,20.50
2017,06,26,13,39,20.60
2017,06,26,13,40,20.70
2017,06,26,13,41,20.80
2017,06,26,13,42,20.90
2017,06,26,13,43,21.00
2017,06,26,13,44,21.00
2017,06,26,13,45,21.00
2017,06,26,13,46,21.00
2017,06,26,13,47,21.10
2017,06,26,13,48,21.10
2017,06,26,13,49,21.10
2017,06,26,13,50,21.20
2017,06,26,13,51,21.40
2017,06,26,13,52,21.50
2017,06,26,13,53,21.60
2017,06,26,13,54,21.60
2017,06,26,13,55,21.80
2017,06,26,13,56,21.90
2017,06,26,13,57,22.10
2017,06,26,13,58,22.20
2017,06,26,13,59,22.30
2017,06,26,14,00,22.40
2017,06,26,14,01,22.50
2017,06,26,14,02,22.50
2017,06,26,14,03,22.50
2017,06,26,14,04,22.50
2017,06,26,14,05,22.50
2017,06,26,14,06,22.50
2017,06,26,14,07,22.60
2017,06,26,14,08,22.60
2017,06,26,14,09,22.70
2017,06,26,14,10,22.70
2017,06,26,14,11,22.70
2017,06,26,14,12,22.80
2017,06,26,14,13,22.80
2017,06,26,14,14,22.80
2017,06,26,14,15,22.80
2017,06,26,14,16,22.90
2017,06,26,14,17,22.90
2017,06,26,14,18,23.00
2017,06,26,14,19,23.10
2017,06,26,14,20,23.20
2017,06,26,14,21,23.20
2017,06,26,14,22,23.20
2017,06,26,14,23,23.20
2017,06,26,14,24,23.30
2017,06,26,14,25,23.30
2017,06,26,14,26,23.30
2017,06,26,14,27,23.40
2017,06,26,14,28,23.40
2017,06,26,14,29,23.40
2017,06,26,14,30,23.40
2017,06,26,14,31,23.40
2017,06,26,14,32,23.40
2017,06,26,14,33,23.40
2017,06,26,14,34,23.50
2017,06,26,14,35,23.50
2017,06,26,14,36,23.60
2017,06,26,14,37,23.60
2017,06,26,14,38,23.70
2017,06,26,14,39,23.80
2017,06,26,14,40,23.90
2017,06,26,14,41,24.00
2017,06,26,14,42,24.10
2017,06,26,14,43,24.20
2017,06,26,14,44,24.30
2017,06,26,14,45,24.30
2017,06,26,14,46,24.30
2017,06,26,14,47,24.30
2017,06,26,14,48,24.20
2017,06,26,14,49,24.00
2017,06,26,14,50,23.70
2017,06,26,14,51,23.30
2017,06,26,14,52,23.10
2017,06,26,14,53,22.90
2017,06,26,14,54,22.70
2017,06,26,14,55,22.60
2017,06,26,14,56,22.50
2017,06,26,14,57,22.40
2017,06,26,14,58,22.40
2017,06,26,14,59,22.30
2017,06,26,15,00,22.00
2017,06,26,15,01,21.80
2017,06,26,15,02,21.50
2017,06,26,15,03,21.30
2017,06,26,15,04,21.10
2017,06,26,15,05,20.80
2017,06,26,15,06,20.50
2017,06,26,15,07,20.40
2017,06,26,15,08,20.40
2017,06,26,15,09,20.40
2017,06,26,15,10,20.30
2017,06,26,15,11,20.20
2017,06,26,15,12,20.20
2017,06,26,15,13,20.20
2017,06,26,15,14,20.10
2017,06,26,15,15,20.10
2017,06,26,15,16,20.10
2017,06,26,15,17,20.10
2017,06,26,15,18,20.20
2017,06,26,15,19,20.20
2017,06,26,15,20,20.20
2017,06,26,15,21,20.20
2017,06,26,15,22,20.20
2017,06,26,15,23,20.20
2017,06,26,15,24,20.20
2017,06,26,15,25,20.20
2017,06,26,15,26,20.20
2017,06,26,15,27,20.10
2017,06,26,15,28,20.10
2017,06,26,15,29,20.00
2017,06,26,15,30,19.90
2017,06,26,15,31,19.90
2017,06,26,15,32,19.80
2017,06,26,15,33,19.70
2017,06,26,15,34,19.60
2017,06,26,15,35,19.50
2017,06,26,15,36,19.50
2017,06,26,15,37,19.40
2017,06,26,15,38,19.40
2017,06,26,15,39,19.40
2017,06,26,15,40,19.40
2017,06,26,15,41,19.30
2017,06,26,15,42,19.20
2017,06,26,15,43,19.20
2017,06,26,15,44,19.20
2017,06,26,15,45,19.20
2017,06,26,15,46,19.10
2017,06,26,15,47,19.00
2017,06,26,15,48,19.00
2017,06,26,15,49,19.00
2017,06,26,15,50,18.90
2017,06,26,15,51,18.90
2017,06,26,15,52,18.80
2017,06,26,15,53,18.60
2017,06,26,15,54,18.50
2017,06,26,15,55,18.40
2017,06,26,15,56,18.40
2017,06,26,15,57,18.40
2017,06,26,15,58,18.50
2017,06,26,15,59,18.50
2017,06,26,16,00,18.60
2017,06,26,16,01,18.60
2017,06,26,16,02,18.70
2017,06,26,16,03,18.80
2017,06,26,16,04,18.80
2017,06,26,16,05,18.70
2017,06,26,16,06,18.70
2017,06,26,16,07,18.60
2017,06,26,16,08,18.50
2017,06,26,16,09,18.40
2017,06,26,16,10,18.30
2017,06,26,16,11,18.10
2017,06,26,16,12,18.00
2017,06,26,16,13,18.00
2017,06,26,16,14,18.00
2017,06,26,16,15,18.00
2017,06,26,16,16,17.90
2017,06,26,16,17,17.90
2017,06,26,16,18,17.80
2017,06,26,16,19,17.80
2017,06,26,16,20,17.80
2017,06,26,16,21,17.80
2017,06,26,16,22,17.90
2017,06,26,16,23,18.00
2017,06,26,16,24,18.00
2017,06,26,16,25,18.10
2017,06,26,16,26,18.20
2017,06,26,16,27,18.40
2017,06,26,16,28,18.50
2017,06,26,16,29,18.60
2017,06,26,16,30,18.60
2017,06,26,16,31,18.70
2017,06,26,16,32,18.80
2017,06,26,16,33,18.90
2017,06,26,16,34,19.00
2017,06,26,16,35,19.00
2017,06,26,16,36,19.10
2017,06,26,16,37,19.10
2017,06,26,16,38,19.20
2017,06,26,16,39,19.30
2017,06,26,16,40,19.40
2017,06,26,16,41,19.50
2017,06,26,16,42,19.60
2017,06,26,16,43,19.60
2017,06,26,16,44,19.70
2017,06,26,16,45,19.80
2017,06,26,16,46,19.90
2017,06,26,16,47,19.90
2017,06,26,16,48,19.90
2017,06,26,16,49,20.00
2017,06,26,16,50,20.00
2017,06,26,16,51,20.10
2017,06,26,16,52,20.10
2017,06,26,16,53,20.20
2017,06,26,16,54,20.30
2017,06,26,16,55,20.30
2017,06,26,16,56,20.40
2017,06,26,16,57,20.40
2017,06,26,16,58,20.50
2017,06,26,16,59,20.50
2017,06,26,17,00,20.60
2017,06,26,17,01,20.70
2017,06,26,17,02,20.70
2017,06,26,17,03,20.60
2017,06,26,17,04,20.60
2017,06,26,17,05,20.70
2017,06,26,17,06,20.70
2017,06,26,17,07,20.60
2017,06,26,17,08,20.60
2017,06,26,17,09,20.60
2017,06,26,17,10,20.50
2017,06,26,17,11,20.50
2017,06,26,17,12,20.60
2017,06,26,17,13,20.60
2017,06,26,17,14,20.70
2017,06,26,17,15,20.80
2017,06,26,17,16,20.80
2017,06,26,17,17,20.80
2017,06,26,17,18,20.80
2017,06,26,17,19,20.80